Regional Weather Roundup
Issued by NWS

Home | Current Version | Previous Version | Text Only | Print | Product List | Glossary Off
Versions: 1 2 3 4 5 6 7 8 9 10 11 12 13 14 15 16 17 18 19 20 21 22 23 24 25 26 27 28 29 30 31 32 33 34 35 36 37 38 39 40 41 42 43 44 45 46 47 48 49 50

000
ASUS43 KMKX 150011
RWRWI

WISCONSIN REGIONAL WEATHER ROUNDUP
NATIONAL WEATHER SERVICE MILWAUKEE/SULLIVAN WI
700 PM CDT SUN SEP 14 2014

NOTE: "FAIR" INDICATES FEW OR NO CLOUDS BELOW 12,000 FEET WITH NO
SIGNIFICANT WEATHER AND/OR OBSTRUCTIONS TO VISIBILITY.

WIZ001-002-006>008-014>016-023>028-150100-
NORTHWEST WISCONSIN

CITY           SKY/WX    TMP DP  RH WIND       PRES   REMARKS
SUPERIOR ARPT  PTCLDY    55  44  67 W6        30.07S
6HR MIN TEMP:  55; 6HR MAX TEMP:  62;

ASHLAND        PTCLDY    52  45  77 W3        30.07R
6HR MIN TEMP:  52; 6HR MAX TEMP:  63;

HAYWARD        PTCLDY    56  41  57 VRB3      30.09R
6HR MIN TEMP:  56; 6HR MAX TEMP:  62;

SIREN          MOCLDY    56  44  64 NW5       30.10S
6HR MIN TEMP:  56; 6HR MAX TEMP:  63;

RICE LAKE      MOCLDY    57  42  57 W3        30.11R
6HR MIN TEMP:  57; 6HR MAX TEMP:  64;

LADYSMITH      PTCLDY    56  43  61 W5        30.11R
6HR MIN TEMP:  56; 6HR MAX TEMP:  64;

EAU CLAIRE     PTCLDY    59  39  47 W6        30.09R
6HR MIN TEMP:  59; 6HR MAX TEMP:  66;

MENOMONIE      MOCLDY    60  39  46 W5        30.10S
6HR MIN TEMP:  60; 6HR MAX TEMP:  67;

NEW RICHMOND   MOCLDY    57  42  57 W6        30.11S
6HR MIN TEMP:  57; 6HR MAX TEMP:  64;

OSCEOLA        MOCLDY    58  45  61 W7        30.13S
6HR MIN TEMP:  58; 6HR MAX TEMP:  64;

$$

WIZ003>005-009-010-017-018-150100-
NORTH CENTRAL WISCONSIN

CITY           SKY/WX    TMP DP  RH WIND       PRES   REMARKS
WOODRUFF       PTCLDY    57  43  59 W6        30.06S
6HR MIN TEMP:  57; 6HR MAX TEMP:  62;

RHINELANDER    MOCLDY    53  42  66 W6        30.07R
6HR MIN TEMP:  53; 6HR MAX TEMP:  62;

EAGLE RIVER    MOCLDY    54  38  54 W6        30.05R
6HR MIN TEMP:  54; 6HR MAX TEMP:  62;

LAND O LAKES   CLOUDY    55  40  59 W6        30.06R
6HR MIN TEMP:  55; 6HR MAX TEMP:  61;

PHILLIPS       MOCLDY    54  42  62 W3        30.08R
6HR MIN TEMP:  54; 6HR MAX TEMP:  62;

TOMAHAWK       PTCLDY    54  41  61 CALM      30.08R
6HR MIN TEMP:  54; 6HR MAX TEMP:  61;

MEDFORD        CLEAR     55  42  62 W8        30.08S
6HR MIN TEMP:  55; 6HR MAX TEMP:  62;

MERRILL        MOCLDY    56  45  66 W6        30.07S
6HR MIN TEMP:  56; 6HR MAX TEMP:  63;

$$

WIZ029-030-035-036-043>047-150100-
CENTRAL WISCONSIN

CITY           SKY/WX    TMP DP  RH WIND       PRES   REMARKS
WAUSAU         CLEAR     57  45  64 W8        30.07R
6HR MIN TEMP:  57; 6HR MAX TEMP:  65;

MOSINEE        PTCLDY    55  46  71 W9        30.09R
MARSHFIELD     CLEAR     58  46  64 W5        30.09R
6HR MIN TEMP:  57; 6HR MAX TEMP:  66;

STEVENS POINT  MOCLDY    60  47  64 W5        30.09R
6HR MIN TEMP:  59; 6HR MAX TEMP:  64;

WAUPACA        PTCLDY    62  49  61 SW6       30.09R
6HR MIN TEMP:  62; 6HR MAX TEMP:  68;

WAUTOMA        CLEAR     61  48  62 SW6       30.10S
6HR MIN TEMP:  62; 6HR MAX TEMP:  69;

WISC RAPIDS    LGT RAIN  62  49  62 NW7       30.10R
6HR MIN TEMP:  62; 6HR MAX TEMP:  67; 6HR PCP: TRACE;

CAMP DOUGLAS   PTCLDY    63  50  63 SW7       30.09S
6HR MIN TEMP:  63; 6HR MAX TEMP:  68;

$$

WIZ011>013-019>022-031-037>040-048>050-150100-
NORTHEAST WISCONSIN

CITY           SKY/WX    TMP DP  RH WIND       PRES   REMARKS
ANTIGO         CLEAR     55  44  65 W7        30.08R
6HR MIN TEMP:  55; 6HR MAX TEMP:  61;

STURGEON BAY   MOCLDY    55  46  71 S9        30.07S
6HR MIN TEMP:  55; 6HR MAX TEMP:  63;

GREEN BAY      PTCLDY    59  49  69 S6        30.08S
6HR MIN TEMP:  59; 6HR MAX TEMP:  65;

MANITOWOC      CLEAR     60  48  64 S9        30.10F
6HR MIN TEMP:  60; 6HR MAX TEMP:  65;

APPLETON       PTCLDY    59  46  63 S9        30.09S
CLINTONVILLE   CLOUDY    61  46  59 SW5       30.07S
OSHKOSH        PTCLDY    60  48  64 SW9       30.10S
6HR MIN TEMP:  60; 6HR MAX TEMP:  65;

$$

WIZ032>034-041-042-053>061-150100-
SOUTHWEST WISCONSIN

CITY           SKY/WX    TMP DP  RH WIND       PRES   REMARKS
LA CROSSE      MOCLDY    66  51  58 SW5       30.09R
6HR MIN TEMP:  66; 6HR MAX TEMP:  72;

SPARTA         MOCLDY    62  48  60 CALM      30.10R
6HR MIN TEMP:  62; 6HR MAX TEMP:  68;

VIROQUA        FAIR      59  49  69 SW6       30.11S
6HR MIN TEMP:  59; 6HR MAX TEMP:  67;

BOSCOBEL       PTCLDY    64  48  56 SW6       30.12R
6HR MIN TEMP:  64; 6HR MAX TEMP:  70;

PRAIRIE DU CHI PTCLDY    63  48  57 CALM      30.12S
6HR MIN TEMP:  63; 6HR MAX TEMP:  68;

PLATTEVILLE    FAIR      60  49  66 CALM      30.15R
6HR MIN TEMP:  60; 6HR MAX TEMP:  65;

$$

WIZ056-057-062-063-064-067-068-150100-
SOUTH CENTRAL WISCONSIN

CITY           SKY/WX    TMP DP  RH WIND       PRES   REMARKS
BARABOO/DELLS  CLEAR     60  46  60 SW7       30.12R
6HR MIN TEMP:  60; 6HR MAX TEMP:  67;

LONE ROCK      PTCLDY    65  47  52 SW7       30.12S
6HR MIN TEMP:  65; 6HR MAX TEMP:  71;

WATERTOWN      CLEAR     58  47  68 S6        30.14S
6HR MIN TEMP:  58; 6HR MAX TEMP:  65;

MADISON        PTCLDY    63  46  54 SW7       30.13F
6HR MIN TEMP:  61; 6HR MAX TEMP:  66;

MIDDLETON      FAIR      61  46  57 SW3       30.13F
6HR MIN TEMP:  61; 6HR MAX TEMP:  67;

MONROE         MOCLDY    59  48  67 S6        30.14F
JANESVILLE     PTCLDY    63  45  51 SW6       30.15S
$$

WIZ051-052-058>065-066-070>072-150100-
SOUTHEAST WISCONSIN

CITY           SKY/WX    TMP DP  RH WIND       PRES   REMARKS
MILWAUKEE      PTCLDY    61  44  53 SW8       30.16S
6HR MIN TEMP:  60; 6HR MAX TEMP:  64;

WAUKESHA       CLEAR     57  45  62 SW7       30.16S
MILWAUKEE/TIMM CLEAR     61  43  51 S6        30.16R
RACINE         CLEAR     58  45  62 SW5       30.18R
6HR MIN TEMP:  58; 6HR MAX TEMP:  64;

BURLINGTON     CLEAR     53  46  75 SW3       30.17S
6HR MIN TEMP:  53; 6HR MAX TEMP:  63;

KENOSHA        CLEAR     59  46  62 SW3       30.17S
6HR MIN TEMP:  59; 6HR MAX TEMP:  64;

FOND DU LAC    CLEAR     59  47  64 MISG      30.11F
6HR MIN TEMP:  59; 6HR MAX TEMP:  65;

SHEBOYGAN      CLEAR     58  46  64 S8        30.12F
6HR MIN TEMP:  58; 6HR MAX TEMP:  66;

WEST BEND      CLEAR     57  43  58 S5        30.14F
JUNEAU         PTCLDY    58  47  67 S6        30.14F
6HR MIN TEMP:  58; 6HR MAX TEMP:  64;

$$

LSZ147-162-150100-
LAKE SUPERIOR

STATION/POSITION TIME  TEMP    WIND        PRES    WAVE
                       AIR SEA DIR/SP/G            HT/PER
                 (UTC) (F)     (DEG/KT/KT) (MB)    (FT/S)
W MID LAKE BUOY  2350   51 47  240/ 14/ 16 1016.2R   3/ 5
DEVILS ISLAND    0000   53     240/ 11/ 12 1017.8R
PORT WING        2300   58     260/  6/ 10 1017.9R
SAXON HARBOR     2300   59      CALM  /  7 1017.6R
$$

LMZ867-665-643>646-150100-
LAKE MICHIGAN

STATION/POSITION TIME  TEMP    WIND        PRES    WAVE
                       AIR SEA DIR/SP/G            HT/PER
                 (UTC) (F)     (DEG/KT/KT) (MB)    (FT/S)
N MID LAKE BUOY  2350   58 58  210/ 25/ 31 1017.3F   7/ 7
NORTHPORT PIER   2300   58     170/  8/ 16 1017.9S
KEWAUNEE LAKESHO 2300   54     180/ 14/ 15 1018.1F
SHEBOYGAN LAKESH 0000   62 50  190/ 12/ 13 1020.4F
PORT WASHINGTON  2300   67     210/  3/  9 1021.0
MILWAUKEE LAKESH 2300   63     220/ 13/ 15   N/A
S MID LAKE BUOY  2350   60 65  190/ 10/ 12 1022.0F   2/ 4
KENOSHA   LAKESH 0000   62     220/  5/  7 1021.0S
$$

TC  - TEMPERATURE IN CELSIUS
VSB - VISIBILITY IN STATUTE MILES
WCI - WIND CHILL INDEX
HX  - HEAT INDEX




USA.gov is the U.S. government's official web portal to all federal, state and local government web resources and services.